Brockley, United Kingdom
Current Conditions -  °F | °C
As of 6:20 PM on Thursday 30 Oct 2014 (Local Time) from EGLC Reporting Station
Clear Clear  
Wind Chill: 61°   Ceiling: Unl
Heat Index: 61°   Visibility: 6mi
Dew Point: 57°   Wind: 6mph
Humidity: 88%   Direction: 140°SE
Pressure: 30.09"   Gusts: NA
Location:  51.45°N, 0.03°W
Report Text: EGLC 301820Z 14005KT 100V190 CAVOK 16/14 Q1019
Loading
Personal Weather Stations






























Interactive Weather Map
Tropical Storm Tracking
New forecast layout! Learn more

10-Day Weather Forecast

Advertisements
Track Severe Weather on mobile